Tracking 18843 objects as of 20-November-2017
HD Live streaming from Space Station
objects crossing your sky now

SL-14 R/B

Track SL-14 R/B now!
10-day predictions
SL-14 R/B is classified as:


NORAD ID: 20466
Int'l Code: 1990-010B
Perigee: 618.1 km
Apogee: 646.6 km
Inclination: 82.5 °
Period: 97.2 minutes
Semi major axis: 7003 km
RCS: 4.6031 m2 (large)
Launch date: January 30, 1990
Source: Commonwealth of Independent States (former USSR) (CIS)
Launch site: PLESETSK MISSILE AND SPACE COMPLEX (PKMTR)

Note: This is a ROCKET BODY
aabbcc
Your satellite tracking list
Your tracking list is empty




NASA's NSSDC Master Catalog

Two Line Element Set (TLE):
1 20466U 90010B   17324.21246051  .00000095  00000-0  90916-5 0  9990
2 20466  82.5054 226.6111 0020388 181.8594 178.2548 14.81304000500595
Source of the keplerian elements: AFSPC